Orbital Elements at Epoch 2459200.5 (2020-Dec-17.0) TDB
Reference: JPL 23 (heliocentric ecliptic J2000)
Element | Value | Uncertainty (1-sigma) | Units |
e | .08280793873393451 | 4.7685e-08 | |
a | 2.856401665973696 | 2.2202e-08 | au |
q | 2.619868931818238 | 1.3961e-07 | au |
i | 2.628085702994717 | 5.5232e-06 | deg |
node | 147.2777536539419 | 8.5294e-05 | deg |
peri | 199.7087021492538 | 8.9931e-05 | deg |
M | 91.43238925783413 | 2.6411e-05 | deg |
tp | 2458752.657906495328 (2019-Sep-26.15790650) | 0.00012954 | TDB |
period | 1763.30461196898 4.83 | 2.0559e-05 5.629e-08 | d yr |
n | .2041621155847877 | 2.3803e-09 | deg/d |
Q | 3.092934400129154 | 2.4041e-08 | au |
|
| | Orbit Determination Parameters
Additional Information
|